Volver al catálogo

LANDSAT 3

ActivoCienciaSSO
NORAD 10702·PAYLOAD·🇺🇸 United States

Lanzado Mar 5, 1978 desde Vandenberg Space Force Base

Loading…

Próximos Pases (próximas 24 horas)

TLE

ActualizadoSource: Space-Track

Época: Sep 14, 2026, 08:14 UTC

1 10702U 78026A   26257.34342731  .00000195  00000-0  17126-3 0  9997
2 10702  99.0779 211.3595 0013527 260.4676 262.0602 13.97006439473923

Sigue LANDSAT 3 en tiempo real con AllMySat

Download on the App Store